Location: Buchberg
(46.9333°N, 15.8500°E)
Time: 04:09:09
(UTC+00:00)

Meteor 2-11 Rocket - Pass Details

Date: 14 July 2020
Orbit: 939 x 957 km, 82.5° (Epoch: 11 August)

Event Time Altitude Azimuth Distance (km) Brightness Sun altitude
Exits shadow 01:48:22 10° 187° (S) 2,638 6.3 -11.9°
Maximum altitude 01:54:24 89° 272° (W) 948 4.5 -11.3°
Drops below altitude 10° 02:00:31 10° 9° (N) 2,666 7.8 -10.6°
Sets 02:03:01 0° 10° (N) 3,614 8.6 -10.3°
